Location: Auttagershofen
(48.1940°N, 10.0237°E)
Time: 14:25:59
(UTC+00:00)

COSMO-SKYMED 1 - Visible Passes

Search period start: 19 April 2026 00:00
Search period end: 29 April 2026 00:00
Orbit: 576 x 578 km, 97.9° (Epoch: 19 April)

Date Brightness Start Highest point End Pass type
(mag) Time Alt. Az. Time Alt. Az. Time Alt. Az.
19 Apr 5.7 19:15:04 10° NNW 19:17:59 19° WNW 19:20:54 10° WSW visible
20 Apr 5.7 19:19:07 10° NNW 19:21:52 18° WNW 19:24:37 10° WSW visible
21 Apr 5.8 19:23:10 10° NNW 19:25:45 16° WNW 19:28:18 10° W visible
22 Apr 5.8 19:27:13 10° NNW 19:29:37 15° WNW 19:31:59 10° W visible
23 Apr 5.9 19:31:19 10° NNW 19:33:28 14° WNW 19:35:38 10° W visible
24 Apr 6.0 19:35:25 10° NNW 19:37:20 13° WNW 19:39:14 10° W visible
25 Apr 6.5 03:19:00 10° ENE 03:19:52 11° ENE 03:20:45 10° NE visible
25 Apr 6.1 19:39:36 10° NW 19:41:11 12° WNW 19:42:47 10° W visible
26 Apr 6.3 03:22:21 10° ENE 03:23:43 11° ENE 03:25:06 10° NE visible
26 Apr 6.2 19:43:50 10° NW 19:45:02 11° WNW 19:46:14 10° WNW visible
27 Apr 6.2 03:25:50 10° E 03:27:34 12° ENE 03:29:18 10° NNE visible
27 Apr 6.4 19:48:19 10° NW 19:48:52 10° NW 19:49:27 10° WNW visible
28 Apr 6.1 03:29:24 10° E 03:31:25 13° ENE 03:33:26 10° NNE visible
